TimeEST,TemperatureF,Dew PointF,Humidity,Sea Level PressureIn,VisibilityMPH,Wind Direction,Wind SpeedMPH,Gust SpeedMPH,PrecipitationIn,Events,Conditions,WindDirDegrees,DateUTC
12:18 AM,17.6,10.4,73,29.81,3.0,NW,16.1,-,0.00,Snow,Light Snow,310,2013-03-04 05:18:00
12:49 AM,17.6,10.4,73,29.81,2.5,NW,12.7,-,0.00,Snow,Light Snow,310,2013-03-04 05:49:00
12:56 AM,17.1,10.9,77,29.92,2.0,NW,11.5,-,0.00,Snow,Light Snow,310,2013-03-04 05:56:00
1:19 AM,17.6,10.4,73,29.82,5.0,NW,15.0,-,0.00,Snow,Light Snow,310,2013-03-04 06:19:00
1:56 AM,17.1,10.0,74,29.92,4.0,WNW,15.0,-,0.00,Snow,Light Snow,300,2013-03-04 06:56:00
2:56 AM,16.0,10.9,81,29.92,3.0,WNW,10.4,-,0.00,Snow,Light Snow,300,2013-03-04 07:56:00
4:06 AM,15.8,10.4,79,29.83,2.5,WNW,10.4,-,0.00,Snow,Light Snow,300,2013-03-04 09:06:00
4:18 AM,15.8,10.4,79,29.84,3.0,WNW,11.5,-,0.00,Snow,Light Snow,300,2013-03-04 09:18:00
4:56 AM,17.1,10.9,77,29.95,2.5,NW,15.0,-,0.00,Snow,Light Snow,310,2013-03-04 09:56:00
5:54 AM,17.6,10.4,73,29.85,3.0,NW,16.1,-,0.00,Snow,Light Snow,310,2013-03-04 10:54:00
5:56 AM,17.1,10.9,77,29.96,3.0,NW,18.4,-,0.00,Snow,Light Snow,310,2013-03-04 10:56:00
6:19 AM,17.6,10.4,73,29.86,2.5,NW,13.8,-,0.00,Snow,Light Snow,310,2013-03-04 11:19:00
6:49 AM,17.6,10.4,73,29.86,1.5,NW,13.8,20.7,0.00,Snow,Light Snow,310,2013-03-04 11:49:00
7:26 AM,17.6,10.4,73,29.87,3.0,NW,12.7,21.9,0.00,Snow,Light Snow,310,2013-03-04 12:26:00
7:56 AM,17.1,10.9,77,29.99,4.0,NW,15.0,-,0.00,Snow,Light Snow,310,2013-03-04 12:56:00
8:08 AM,17.6,10.4,73,29.89,1.8,NW,15.0,21.9,0.00,Snow,Light Snow,310,2013-03-04 13:08:00
8:56 AM,18.0,10.9,74,29.99,1.8,NW,16.1,23.0,0.00,Snow,Light Snow,310,2013-03-04 13:56:00
9:38 AM,19.4,12.2,74,29.89,1.2,NW,16.1,25.3,0.00,Snow,Light Snow,310,2013-03-04 14:38:00
9:56 AM,19.0,12.9,77,30.00,1.5,NW,15.0,28.8,0.00,Snow,Light Snow,310,2013-03-04 14:56:00
10:20 AM,19.4,12.2,74,29.89,1.5,WNW,13.8,25.3,0.00,Snow,Light Snow,300,2013-03-04 15:20:00
10:49 AM,19.4,12.2,74,29.89,2.0,WNW,17.3,-,0.00,Snow,Light Snow,300,2013-03-04 15:49:00
10:56 AM,21.0,12.9,71,29.99,2.5,WNW,18.4,-,0.00,Snow,Light Snow,290,2013-03-04 15:56:00
11:05 AM,21.2,14.0,74,29.89,4.0,WNW,13.8,-,0.00,Snow,Light Snow,300,2013-03-04 16:05:00
11:56 AM,21.9,14.0,72,29.99,5.0,WNW,17.3,-,0.00,Snow,Light Snow,300,2013-03-04 16:56:00
12:42 PM,21.2,15.8,80,29.89,9.0,WNW,19.6,25.3,0.00,,Overcast,290,2013-03-04 17:42:00
12:56 PM,21.9,16.0,78,29.99,10.0,WNW,18.4,-,0.00,,Overcast,300,2013-03-04 17:56:00
1:56 PM,23.0,16.0,74,29.99,9.0,WNW,23.0,29.9,0.00,,Overcast,300,2013-03-04 18:56:00
2:56 PM,23.0,16.0,74,30.00,10.0,WNW,18.4,24.2,0.00,,Overcast,300,2013-03-04 19:56:00
3:56 PM,23.0,17.1,78,30.00,10.0,NW,16.1,25.3,0.00,,Overcast,310,2013-03-04 20:56:00
4:08 PM,23.0,17.6,80,29.90,10.0,West,17.3,20.7,N/A,,Overcast,280,2013-03-04 21:08:00
4:56 PM,21.9,17.1,82,30.01,10.0,West,11.5,-,N/A,,Overcast,280,2013-03-04 21:56:00
5:56 PM,21.9,17.1,82,30.03,10.0,WNW,11.5,23.0,N/A,,Overcast,300,2013-03-04 22:56:00
6:56 PM,21.9,17.1,82,30.04,10.0,NW,15.0,24.2,N/A,,Overcast,310,2013-03-04 23:56:00
7:56 PM,21.0,17.1,85,30.05,10.0,WNW,18.4,26.5,N/A,,Overcast,300,2013-03-05 00:56:00
8:56 PM,21.0,16.0,81,30.06,10.0,WNW,17.3,-,N/A,,Overcast,300,2013-03-05 01:56:00
9:56 PM,21.0,17.1,85,30.06,10.0,NW,17.3,23.0,N/A,,Overcast,310,2013-03-05 02:56:00
10:56 PM,21.0,17.1,85,30.05,10.0,WNW,12.7,21.9,N/A,,Overcast,300,2013-03-05 03:56:00
11:56 PM,21.0,17.1,85,30.06,10.0,WNW,13.8,-,N/A,,Overcast,300,2013-03-05 04:56:00